Location: Gleizolles
(44.4833°N, 6.7667°E)
Time: 13:35:13
(UTC+00:00)

UKube-1 - Visible Passes

Search period start: 12 July 2024 00:00
Search period end: 22 July 2024 00:00
Orbit: 581 x 587 km, 98.3° (Epoch: 12 July)

Date Brightness Start Highest point End Pass type
(mag) Time Alt. Az. Time Alt. Az. Time Alt. Az.
12 Jul ? 00:07:28 10° NE 00:10:46 22° E 00:11:05 22° ESE visible
12 Jul ? 01:42:26 10° N 01:46:10 33° WNW 01:47:31 26° WSW visible
13 Jul ? 00:13:38 10° NE 00:17:08 26° E 00:17:27 26° ESE visible
13 Jul ? 01:48:51 10° N 01:52:27 29° WNW 01:53:52 23° WSW visible
14 Jul ? 00:19:48 10° NE 00:23:29 30° E 00:23:48 29° ESE visible
14 Jul ? 01:55:17 10° N 01:58:43 25° WNW 02:00:13 20° W visible
15 Jul ? 00:26:00 10° NNE 00:29:49 34° E 00:30:07 34° ESE visible
15 Jul ? 02:01:43 10° NNW 02:04:58 22° WNW 02:06:33 18° W visible
16 Jul ? 00:32:11 10° NNE 00:36:07 40° E 00:36:26 39° ESE visible
16 Jul ? 02:08:11 10° NNW 02:11:11 20° WNW 02:12:51 16° W visible
17 Jul ? 00:38:23 10° NNE 00:42:25 47° E 00:42:44 45° ESE visible
17 Jul ? 02:14:39 10° NNW 02:17:24 17° WNW 02:19:09 14° W visible
18 Jul ? 00:44:35 10° NNE 00:48:40 55° E 00:49:01 53° ESE visible
18 Jul ? 02:21:09 10° NNW 02:23:35 15° WNW 02:25:26 12° W visible
19 Jul ? 00:50:47 10° NNE 00:54:55 64° ESE 00:55:16 61° SE visible
19 Jul ? 02:27:43 10° NNW 02:29:46 13° WNW 02:31:41 10° W visible
20 Jul ? 00:56:59 10° NNE 01:01:09 75° ESE 01:01:31 69° SSE visible
20 Jul ? 02:34:23 10° NW 02:35:55 12° WNW 02:37:25 10° W visible
21 Jul ? 01:03:11 10° NNE 01:07:23 87° ESE 01:07:45 73° S visible
21 Jul ? 02:41:26 10° NW 02:42:02 10° WNW 02:42:38 10° WNW visible
